Погода в Троицком

Россия / Вологодская область     60°19′50″N   37°42′29″E
темп.,
°C
ветер,
м/с
пор.,
м/с
влажн.,
%
обл.,
%
осадки,
мм/ч
давл.,
гПа
погр.,
м
14 мая, пт
пт1400:00+8в11100100 7.3 101343
03:00+7ю5510095 7.3 101452
06:00+7ю569994 0.3 101456
09:00+7ю579541 0.3 101595
12:00+8ю587524 0.0 1016164
15:00+10ю466815 0.0 1016184
18:00+11ю466552 0.0 1014104
21:00+10ююв55825 0.0 101527
15 мая, сб
сб1500:00+8юв44881 0.0 101413
03:00+7вюв44915 0.0 101414
06:00+7в449328 0.0 101331
09:00+10вюв459050 0.0 101278
12:00+12вюв458219 0.1 1010134
15:00+12вюв469041 1.8 1008113
18:00+11вюв4597100 5.9 100636
21:00+10юв55100100 9.6 100633
16 мая, вс
вс1600:00+9юв55100100 2.6 100537
03:00+6ю4510088 3.0 100541
06:00+6ю4410088 0.0 100629
09:00+8ю569889 0.1 100776
12:00+8ююз689685 0.2 1007107
15:00+9ююз579551 0.4 1007106
18:00+8зюз689779 0.5 100869
21:00+8зюз5599100 0.5 100939
17 мая, пн
пн1700:00+8з5510086 0.1 101140
03:00+6юз4410090 0.1 101320
06:00+6юз4410087 0.0 101423
09:00+7ююз239679 0.0 101542
12:00+8вюв229379 0.0 1015113
15:00+11вюв227762 0.0 1014140
18:00+13вюв337294 0.0 101347
21:00+11юв4588100 0.0 101318
18 мая, вт
вт1800:00+10вюв569082 0.0 101328
03:00+9в679697 0.0 101246
06:00+10вюв799537 0.4 101067
09:00+11вюв798996 0.4 100978
12:00+13юв797463 0.0 1007120
15:00+14ююв71172100 0.0 1007175
18:00+13ююв6877100 0.0 1006128
21:00+13юв7983100 0.0 100569